Regional Weather Roundup
Issued by NWS

Home | Current Version | Previous Version | Text Only | Print | Product List | Glossary On
Versions: 1 2 3 4 5 6 7 8 9 10 11 12 13 14 15 16 17 18 19 20 21 22 23 24 25 26 27 28 29 30 31 32 33 34 35 36 37 38 39 40 41 42 43 44 45 46 47 48 49 50
000
ASUS43 KIND 171909
RWRIN

WEATHER ROUNDUP FOR INDIANA
NATIONAL WEATHER SERVICE INDIANAPOLIS IN
300 PM EDT THU APR 17 2014

NOTE: "FAIR" INDICATES FEW OR NO CLOUDS BELOW 12,000 FEET WITH NO
SIGNIFICANT WEATHER AND/OR OBSTRUCTIONS TO VISIBILITY.

* - STATION DOES NOT REPORT WEATHER SUCH AS PRECIPITATION OR FOG.

+ - STATION NOT QUALITY CONTROLLED BY THE NATIONAL WEATHER SERVICE.
    USE DATA WITH CAUTION...ESPECIALLY DEWPOINT AND RELATIVE
    HUMIDITY OBSERVATIONS.

INZ001>003-010>013-019-020-172000-
NORTHWEST INDIANA

CITY           SKY/WX    TMP DP  RH WIND       PRES   REMARKS
GARY /AIRPORT/ MOSUNNY   63  34  34 SW12G23   30.19F
LA PORTE +     MOSUNNY   62  34  34 SW15G23   30.21S
MICHIGAN CITY+ MOSUNNY   63  32  31 SW16G23   30.20S
MONTICELLO +   PTSUNNY   64  37  36 SW16      30.22F
RENSSELAER +   PTSUNNY   63  32  31 SW12G22   30.22S
VALPARAISO     MOSUNNY   62  34  35 SW15G24   30.21S

$$

LMZ046-743>745-172000-
SOUTHERN LAKE MICHIGAN

STATION/POSITION TIME  TEMP WIND        PRES
                       AIR  DIR/SP/G
                 (UTC) (F)  (DEG/KT/KT) (MB)
MICHIGAN CITY    1900   58  190/ 21/ 26   N/A

$$

INZ004-005-014>016-021>024-172000-
NORTH CENTRAL INDIANA

CITY           SKY/WX    TMP DP  RH WIND       PRES   REMARKS
GOSHEN         MOSUNNY   64  33  31 SW18G24   30.22S
LOGANSPORT +   PTSUNNY   63  32  31 SW15      30.25S
PERU/GRISSOM   PTSUNNY   64  34  33 SW14      30.24F
ROCHESTER +    MOSUNNY   64  32  29 SW14G20   30.24S
SOUTH BEND     MOSUNNY   65  34  31 S18G26    30.21F
WARSAW +       MOSUNNY   63  32  31 S10G21    30.23S

$$

INZ006>009-017-018-025>027-172000-
NORTHEAST INDIANA

CITY           SKY/WX    TMP DP  RH WIND       PRES   REMARKS
ANGOLA *+      SUNNY     63  32  31 SW15      30.23S
AUBURN +       MOSUNNY   63  27  25 SW10G22   30.25S
FORT WAYNE     PTSUNNY   65  27  23 SW20G29   30.25F

$$

INZ028-029-035-036-043>045-051>053-172000-
WEST CENTRAL INDIANA

CITY           SKY/WX    TMP DP  RH WIND       PRES   REMARKS
GREENCASTLE +  MOSUNNY   63  36  36 S6        30.27S
LAFAYETTE      CLOUDY    64  34  32 SW14G20   30.23F
TERRE HAUTE    PTSUNNY   65  38  36 S17       30.26F

$$

INZ030>032-037>040-046>048-054>057-064-065-172000-
CENTRAL INDIANA

CITY           SKY/WX    TMP DP  RH WIND       PRES   REMARKS
ANDERSON       SUNNY     64  28  25 S17G29    30.28S
CP ATTERBURY + SUNNY     66  32  28 SW12G18   30.27F
GREENWOOD *+   SUNNY     66  34  30 S18       30.28
INDIANAPOLIS   PTSUNNY   64  30  27 SW17G23   30.26S
-EAGLE CREEK   MOSUNNY   64  30  27 SW13G21   30.26S
KOKOMO *+      PTSUNNY   64  36  34 SW20      30.25F
MARION +       MOSUNNY   64  27  24 SW17G26   30.26S
MT COMFORT *+  SUNNY     66  34  30 SW15      30.27S
SHELBYVILLE    SUNNY     67  33  28 S18G26    30.27F
ZIONSVILLE +   MOSUNNY   65  28  24 S16       30.27S

$$

INZ033-034-041-042-049-050-058-059-172000-
EAST CENTRAL INDIANA

CITY           SKY/WX    TMP DP  RH WIND       PRES   REMARKS
MUNCIE         SUNNY     64  29  26 SW10G25   30.27S

$$

INZ060-061-067>069-081>083-085>088-172000-
SOUTHWEST INDIANA

CITY           SKY/WX    TMP DP  RH WIND       PRES   REMARKS
EVANSVILLE     MOSUNNY   65  39  38 S9        30.29F
HUNTINGBURG *+ SUNNY     64  39  39 S9        30.31S
WASHINGTON +   MOSUNNY   64  40  40 SW14      30.28F

$$

INZ062-063-066-070>080-084-089>092-172000-
SOUTH CENTRAL AND SOUTHEAST INDIANA

CITY           SKY/WX    TMP DP  RH WIND       PRES   REMARKS
BLOOMINGTON    MOSUNNY   65  32  29 SW14G23   30.27F

$$




USA.gov is the U.S. government's official web portal to all federal, state and local government web resources and services.